CAPE
nan nan nan nan nan nan nan nan nan nan nan nan nan nan nan nan nan nan nan nan nan nan nan nan nan nan nan nan 6 6 12 12 11 11 8 5 2 2 0 nan nan nan nan nan nan nan nan nan nan nan nan nan nan nan nan nan nan nan nan nan nan nan nan 0 0 1 4 7 5 5 6 5 4 4 3 3 3 3 3 5 5 3 2 2 2 1
nan nan nan nan nan nan nan nan nan nan nan nan nan nan nan nan nan nan nan nan nan nan nan nan nan nan nan nan 2 2 14 11 10 10 8 4 1 1 nan nan nan nan nan nan nan nan nan nan nan nan nan nan nan nan nan nan nan nan nan nan nan nan nan nan nan nan nan 1 3 3 3 nan nan nan 0 2 2 2 3 3 3 3 2 2 2 2
nan nan nan nan nan nan nan nan nan nan nan nan nan nan nan nan nan nan nan nan nan nan nan nan nan nan nan nan 8 8 14 12 11 11 6 2 0 0 nan nan nan nan nan nan nan nan nan nan nan nan nan nan nan nan nan nan nan nan nan nan nan nan nan nan nan nan nan nan nan nan nan nan nan nan nan nan 0 0 1 1 1 1 0 1 1 1
nan nan nan nan nan nan nan nan nan nan nan nan nan nan nan nan nan nan nan nan nan nan nan nan nan nan nan nan nan nan 16 12 10 10 4 1 nan nan nan nan nan nan nan nan nan nan nan nan nan nan nan nan nan nan nan nan nan nan nan nan nan nan nan nan nan nan nan nan nan nan nan nan nan nan nan nan nan nan nan nan nan nan nan nan nan 0
nan nan nan nan nan nan nan nan nan nan nan nan nan nan nan nan nan nan nan nan nan nan nan nan nan nan nan nan nan nan 10 13 6 6 1 0 nan nan nan nan nan nan nan nan nan nan nan nan nan nan nan nan nan nan nan nan nan nan nan nan nan nan nan nan nan nan nan nan nan nan nan nan nan nan nan nan nan nan nan nan nan nan nan nan nan 0
nan nan nan nan nan nan 0 nan nan nan nan nan nan nan nan nan nan nan nan nan nan nan nan nan nan nan nan nan nan nan 3 9 3 3 0 nan nan nan nan nan nan nan nan nan nan nan nan nan nan nan nan nan nan nan nan nan nan nan nan nan nan nan nan nan nan nan nan nan nan nan nan nan nan nan nan nan nan nan nan nan nan nan nan nan nan 0
nan nan nan nan nan nan 0 nan nan nan nan nan nan nan nan nan nan nan nan nan nan nan nan nan nan nan nan nan nan nan nan 0 nan nan nan nan nan nan nan nan nan nan nan nan nan nan nan nan nan nan nan nan nan nan nan nan nan nan nan nan nan nan nan nan nan nan nan nan nan nan nan nan nan nan nan nan nan nan nan nan nan nan nan nan nan 0
nan nan nan 0 0 0 0 0 0 0 nan nan nan nan nan nan nan nan nan nan nan nan nan nan nan nan nan nan nan nan nan nan nan nan nan nan nan nan nan nan nan nan nan nan nan nan nan nan nan nan nan nan nan nan nan nan nan nan nan nan nan nan nan nan nan nan nan nan nan nan nan nan nan nan nan nan nan nan nan nan nan nan nan 0 0 0
nan nan nan nan nan nan nan 0 nan nan nan nan nan nan nan nan nan nan nan nan nan nan nan nan nan nan nan nan nan nan nan nan nan nan nan nan nan nan nan nan nan nan nan nan nan nan nan nan nan nan nan nan nan nan nan nan nan nan nan nan nan nan nan nan nan nan nan nan nan nan nan nan nan nan nan nan nan nan nan nan nan nan nan 0 0 0
nan nan nan nan nan nan nan nan nan nan nan nan nan nan nan nan nan nan nan nan nan nan nan nan nan nan nan nan nan nan nan nan nan nan nan nan nan nan nan nan nan nan nan nan nan nan nan nan nan nan nan nan nan nan nan nan nan nan nan nan nan nan nan nan nan nan nan nan nan nan nan nan nan nan nan nan nan nan nan nan nan nan nan nan nan 0
nan nan nan nan nan nan nan nan nan nan nan nan nan nan nan nan nan nan nan nan nan nan nan nan nan nan nan nan nan nan nan nan nan nan nan nan nan nan nan nan nan nan nan nan nan nan nan nan nan nan nan nan nan nan nan nan nan nan nan nan nan nan nan nan nan nan nan nan nan nan nan nan nan nan nan nan nan nan nan nan nan nan nan nan nan nan
nan nan nan nan nan nan nan nan nan nan nan nan nan nan nan nan nan nan nan nan nan nan nan nan nan nan nan nan nan nan nan nan nan nan nan nan nan nan nan nan nan nan nan nan nan nan nan nan nan nan nan nan nan nan nan nan nan nan nan nan nan 0 0 0 0 0 0 0 0 0 0 0 nan nan nan nan nan nan nan nan nan nan nan nan nan nan
nan nan nan nan nan nan nan nan nan nan nan nan nan nan nan nan nan nan nan nan nan nan nan nan nan nan nan nan nan nan nan nan nan nan nan nan nan nan nan nan nan nan nan nan nan nan nan nan nan nan nan nan nan nan nan nan nan nan nan 0 0 1 1 0 0 nan 0 0 0 0 0 0 1 1 0 nan nan nan nan nan nan nan nan nan nan nan
nan nan nan nan nan nan nan nan nan nan nan nan nan nan nan nan nan nan nan nan nan nan nan nan nan nan nan nan nan nan nan nan nan nan nan nan nan nan nan nan nan nan nan nan nan nan nan nan nan nan nan nan nan nan nan nan nan nan 0 0 0 0 1 0 0 nan nan nan 0 0 0 0 1 1 0 nan nan nan nan nan nan nan nan nan nan nan
nan nan nan nan nan nan nan nan nan nan nan nan nan nan nan nan nan nan nan nan nan nan nan nan nan nan nan nan nan nan nan nan nan nan nan nan nan nan nan nan nan nan nan nan nan nan nan nan nan nan nan nan nan nan nan nan nan nan 0 0 0 0 0 0 0 nan nan nan nan nan nan 0 0 0 0 0 nan nan nan nan nan nan nan 0 0 nan
nan nan nan nan nan nan nan nan nan nan nan nan nan nan nan nan nan nan nan nan nan nan nan nan nan nan nan nan nan nan nan nan nan nan nan nan nan nan nan nan nan nan nan nan nan nan nan nan nan nan nan nan nan nan nan nan nan nan 0 0 0 0 0 0 0 0 nan nan nan nan nan nan 0 0 0 0 nan nan nan nan nan 0 0 0 0 0
nan nan nan nan nan nan nan nan nan nan nan nan nan nan nan nan nan nan nan nan nan nan nan nan nan nan nan nan nan nan nan nan nan nan nan nan nan nan nan nan nan nan nan nan nan nan nan nan nan nan nan nan nan nan nan nan nan nan 0 nan nan nan 0 0 0 0 nan nan nan nan nan nan nan nan 0 1 0 0 nan nan nan 0 2 2 2 1
nan nan nan nan nan nan nan nan nan nan nan nan nan nan nan nan nan nan nan nan nan nan nan nan nan nan nan nan nan nan nan nan nan nan nan nan nan nan nan nan nan nan nan nan nan nan nan nan nan nan nan nan nan nan nan nan nan 0 0 nan nan nan nan nan nan 0 nan 1 0 0 0 nan nan nan nan 0 0 0 0 1 1 2 3 4 4 4
nan nan nan nan nan nan nan nan nan nan nan nan nan nan nan nan nan nan nan nan nan nan nan nan nan nan nan nan nan nan nan nan nan nan nan nan nan nan nan nan nan nan nan nan nan nan nan nan nan nan nan nan nan nan nan 0 0 0 nan nan nan nan nan nan nan 0 0 1 1 1 1 0 0 0 nan nan nan nan nan 1 1 3 5 6 6 8
nan nan nan nan nan nan nan nan nan nan nan nan nan nan nan nan nan nan nan nan nan nan nan nan nan nan nan nan nan nan nan nan nan nan nan nan nan nan nan nan nan nan nan nan nan nan nan nan nan nan nan nan nan nan 0 0 0 0 nan nan nan nan nan nan nan 0 1 1 2 2 2 2 1 1 0 0 nan nan 0 1 1 3 5 8 8 11
nan nan nan nan nan nan nan nan nan nan nan nan nan nan nan nan nan nan nan nan nan nan nan nan nan nan nan nan nan nan nan nan nan nan nan nan nan nan nan nan nan nan nan nan nan nan nan nan nan nan nan nan nan nan 1 0 0 nan nan nan nan nan nan nan nan 0 1 1 1 1 1 1 2 2 2 1 1 1 1 2 2 4 6 10 10 14
nan nan nan nan nan nan nan nan nan nan nan nan nan nan nan nan nan nan nan nan nan nan nan nan nan nan nan nan nan nan nan nan nan nan nan nan nan nan nan nan nan nan nan nan nan nan nan nan nan nan nan nan 0 0 1 0 0 0 0 0 0 nan nan nan nan 0 1 1 1 1 0 0 1 1 1 2 2 2 2 3 3 4 5 8 8 12
nan nan nan nan nan nan nan nan nan nan nan nan nan nan nan nan nan nan nan nan nan nan nan nan nan nan nan nan nan nan nan nan nan nan nan nan nan nan nan nan nan nan nan nan nan nan nan nan nan nan nan nan nan nan 1 1 1 1 1 0 0 0 nan nan nan 0 1 1 1 1 0 0 0 0 0 0 1 1 2 2 2 4 5 5 5 5
nan nan nan nan nan nan nan nan nan nan nan nan nan nan nan nan nan nan nan nan nan nan nan nan nan nan nan nan nan nan nan nan nan nan nan nan nan nan nan nan nan nan nan nan nan nan nan nan nan nan nan nan nan nan 1 2 2 1 0 0 0 0 nan nan nan nan 0 0 1 1 1 0 0 0 0 0 0 0 1 1 1 2 3 4 4 6
nan nan nan nan nan nan nan nan nan nan nan nan nan nan nan nan nan nan nan nan nan nan nan nan nan nan nan nan nan nan nan nan nan nan nan nan nan nan nan nan nan nan nan nan nan nan nan nan nan nan nan nan nan nan 2 1 1 0 nan 0 0 0 0 nan nan nan nan 0 1 1 1 1 1 1 0 1 1 1 1 1 1 2 2 3 3 4
nan nan nan nan nan nan nan nan nan nan nan nan nan nan nan nan nan nan nan nan nan nan nan nan nan nan nan nan nan nan nan nan nan nan nan nan nan nan nan nan nan nan nan nan nan nan nan nan nan nan nan nan nan nan nan 1 1 nan nan nan nan nan 0 0 0 0 0 0 1 1 1 1 1 1 1 1 1 1 2 2 2 2 2 2 2 3
nan nan nan nan nan nan nan nan nan nan nan nan nan nan nan nan nan nan nan nan nan nan nan nan nan nan nan nan nan nan nan nan nan nan nan nan nan nan nan nan nan nan nan nan nan nan nan nan nan nan nan nan nan nan nan nan nan nan nan nan nan nan 0 0 0 1 1 1 1 1 1 1 1 1 1 1 1 1 1 2 2 2 3 4 4 4
nan nan nan nan nan nan nan nan nan nan nan nan nan nan nan nan nan nan nan nan nan nan nan nan nan nan nan nan nan nan nan nan nan nan nan nan nan nan nan nan nan nan nan nan nan nan nan nan nan nan nan nan nan nan nan nan nan nan nan nan nan nan nan 0 0 1 1 0 0 0 0 1 1 1 1 1 1 1 2 2 2 2 3 nan nan nan
nan nan nan nan nan nan nan nan nan nan nan nan nan nan nan nan nan nan nan nan nan nan nan nan nan nan nan nan nan nan nan nan nan nan nan nan nan nan nan nan nan nan nan nan nan nan nan nan nan nan nan nan nan nan nan nan nan nan nan nan nan nan nan nan nan nan 0 nan nan nan nan nan 0 0 0 1 1 1 1 2 2 2 2 nan nan nan
nan nan nan nan nan 2 0 nan nan nan nan nan nan nan nan nan nan nan nan nan nan nan nan nan nan nan nan nan nan nan nan nan nan nan nan nan nan nan nan nan nan nan nan nan nan nan nan nan nan nan nan nan nan nan nan nan nan nan nan nan nan nan nan nan nan nan nan nan nan nan nan nan nan nan nan nan 0 0 1 1 1 5 nan nan nan nan
nan nan nan nan nan nan nan nan nan nan nan nan nan nan nan nan nan nan nan nan nan nan nan nan nan nan nan nan nan nan nan nan nan nan nan nan nan nan nan nan nan nan nan nan nan nan nan nan nan nan nan nan nan nan nan nan nan nan nan nan nan nan nan nan nan nan nan nan nan nan nan nan nan nan nan nan nan nan 1 1 1 1 nan nan nan nan
nan nan nan nan nan nan nan nan nan nan nan nan nan nan nan nan nan nan nan nan nan nan nan nan nan nan nan nan nan nan nan nan nan nan nan nan nan nan nan nan nan nan nan nan nan nan nan nan nan nan nan nan nan nan nan nan nan nan nan nan nan nan nan nan nan nan nan nan nan nan nan nan nan nan nan nan 0 0 1 2 2 3 nan nan nan nan
nan nan nan nan nan nan nan nan nan nan nan nan nan nan nan nan nan nan nan nan nan nan nan nan nan nan nan nan nan nan nan nan nan nan nan nan nan nan nan nan nan nan nan nan nan nan nan nan nan nan nan nan nan nan nan nan nan nan nan nan nan nan nan nan nan nan nan nan nan nan nan nan nan nan nan nan 1 1 2 2 2 4 1 nan nan nan
nan nan nan nan nan nan nan nan nan nan nan nan nan nan nan nan nan nan nan nan nan nan nan nan nan nan nan nan nan nan nan nan nan nan nan nan nan nan nan nan nan nan nan nan nan nan nan nan nan nan nan nan nan nan nan nan nan nan nan nan nan nan nan nan nan nan nan nan nan nan nan nan nan nan nan nan nan nan 1 1 1 2 3 nan nan nan
nan nan nan nan nan nan nan nan nan nan nan nan nan nan nan nan nan nan nan nan nan nan nan nan nan nan nan nan nan nan nan nan nan nan nan nan nan nan nan nan nan nan nan nan nan nan nan nan nan nan nan nan nan nan nan nan nan nan nan nan nan nan nan nan nan nan nan nan nan nan nan nan nan nan nan nan nan nan nan 0 0 0 1 5 5 nan
nan nan nan nan nan nan nan nan nan nan nan nan nan nan nan nan nan nan nan nan nan nan nan nan nan nan nan nan nan nan nan nan nan nan nan nan nan nan nan nan nan nan nan nan nan nan nan nan nan nan nan nan nan nan nan nan nan nan nan nan nan nan nan nan nan nan nan nan nan nan nan nan nan nan nan nan nan nan nan nan nan nan nan 0 0 1
nan nan nan nan nan nan nan nan nan nan nan nan nan nan nan nan nan nan nan nan nan nan nan nan nan nan nan nan nan nan nan nan nan nan nan nan nan nan nan nan nan nan nan nan nan nan nan nan nan nan nan nan nan nan nan nan nan nan nan nan nan nan nan nan nan nan nan nan nan nan nan nan nan nan nan nan nan nan nan nan nan nan nan nan nan nan
nan nan nan nan nan nan nan nan nan nan nan nan nan nan nan nan nan nan nan nan nan nan nan nan nan nan nan nan nan nan nan nan nan nan nan nan nan nan nan nan nan nan nan nan nan nan nan nan nan nan nan nan nan nan nan nan nan nan nan nan nan nan nan nan nan nan nan nan nan nan nan nan nan nan nan nan nan nan nan nan nan nan nan nan nan nan
nan nan nan nan nan nan nan nan nan nan nan nan nan nan nan nan nan nan nan nan nan nan nan nan nan nan nan nan nan nan nan nan nan nan nan nan nan nan nan nan nan nan nan nan nan nan nan nan nan nan nan nan nan nan nan nan nan nan nan nan nan nan nan nan nan nan nan nan nan nan nan nan nan nan nan nan nan nan nan nan nan nan nan nan nan nan
nan nan nan nan nan nan nan nan nan nan nan nan nan nan nan nan nan nan nan nan nan nan nan nan nan nan nan nan nan nan nan nan nan nan nan nan nan nan nan nan nan nan nan nan nan nan nan nan nan nan nan nan nan nan nan nan nan nan nan nan nan nan nan nan nan nan nan nan nan nan nan nan nan nan nan nan nan nan nan nan nan nan nan nan nan nan
nan nan nan nan nan nan nan nan nan nan nan nan nan nan nan nan nan nan nan nan nan nan nan nan nan nan nan nan nan nan nan nan nan nan nan nan nan nan nan nan nan nan nan nan nan nan nan nan nan nan nan nan nan nan nan nan nan nan nan nan nan nan nan nan nan nan nan nan nan nan nan nan nan nan nan nan nan nan nan nan nan nan nan nan nan nan
nan nan nan nan nan nan nan nan nan nan nan nan nan nan nan nan nan nan nan nan nan nan nan nan nan nan nan nan nan nan nan nan nan nan nan nan nan nan nan nan nan nan nan nan nan nan nan nan nan nan nan nan nan nan nan nan nan nan nan nan nan nan nan nan nan nan nan nan nan nan nan nan nan nan nan nan nan nan nan nan nan nan nan nan nan nan
nan nan nan nan nan nan nan nan nan nan nan nan nan nan nan nan nan nan nan nan nan nan nan nan nan nan nan nan nan nan nan nan nan nan nan nan nan nan nan nan nan nan nan nan nan nan nan nan nan nan nan nan nan nan nan nan nan nan nan nan nan nan nan nan nan nan nan nan nan nan nan nan nan nan nan nan nan nan nan nan nan nan nan nan nan nan
nan nan nan nan nan nan nan nan nan nan nan nan nan nan nan nan nan nan nan nan nan nan nan nan nan nan nan nan nan nan nan nan nan nan nan nan nan nan nan nan nan nan nan nan nan nan nan nan nan nan nan nan nan nan nan nan nan nan nan nan nan nan nan nan nan nan nan nan nan nan nan nan nan nan nan nan nan nan nan nan nan nan nan nan nan nan
nan nan nan nan nan nan nan nan nan nan nan nan nan nan nan nan nan nan nan nan nan nan nan nan nan nan nan nan nan nan nan nan nan nan nan nan 0 0 nan nan nan nan nan nan nan nan nan nan nan nan nan nan nan nan nan nan nan nan nan nan nan nan nan nan nan nan nan nan nan nan nan nan nan nan nan nan nan nan nan nan nan nan nan nan nan nan
nan nan nan nan nan nan nan nan nan nan nan nan nan nan nan nan nan nan nan nan nan nan nan nan nan nan nan nan nan nan nan nan nan nan nan nan nan nan nan nan nan nan nan nan nan nan nan nan nan nan nan nan nan nan nan nan nan nan nan nan nan nan nan nan nan nan nan nan nan nan nan nan nan nan nan nan nan nan nan nan nan nan nan nan nan nan
nan nan nan nan nan nan nan nan nan nan nan nan nan nan nan nan nan nan nan nan nan nan nan nan nan nan nan nan nan nan nan nan nan nan nan nan nan nan nan 0 0 nan nan nan nan nan nan nan nan nan nan nan nan nan nan nan nan nan nan nan nan nan nan nan nan nan nan nan nan nan nan nan nan nan nan nan nan nan nan nan nan nan nan nan nan nan
nan nan nan nan nan nan nan nan nan nan nan nan nan nan nan nan nan nan nan nan nan nan nan nan nan nan nan nan nan nan nan nan nan nan nan nan nan nan nan nan nan nan nan nan nan nan nan nan nan nan nan nan nan nan nan nan nan nan nan nan nan nan nan nan nan nan nan nan nan nan nan nan nan nan nan nan nan nan nan nan nan nan nan nan nan nan
nan nan nan nan nan nan nan nan nan nan nan nan nan nan nan nan nan nan nan nan nan nan nan nan nan nan nan nan nan nan nan nan nan nan nan nan nan nan nan nan nan nan nan 0 0 1 0 nan nan nan nan nan nan nan nan nan nan nan nan nan nan nan nan nan nan nan nan nan nan nan nan nan nan nan nan nan nan nan nan nan nan nan nan nan nan nan
nan nan nan nan nan nan nan nan nan nan nan nan nan nan nan nan nan nan nan nan nan nan nan nan nan nan nan nan nan nan nan nan nan nan nan nan nan nan nan nan nan nan nan 0 0 0 0 0 0 1 0 nan nan nan nan nan nan nan nan nan nan nan nan nan nan nan nan nan nan nan nan nan nan nan nan nan nan nan nan nan nan nan nan nan nan nan
nan nan nan nan nan nan nan nan nan nan nan nan nan nan nan nan nan nan nan nan nan nan nan nan nan nan nan nan nan nan nan nan nan nan nan nan nan nan nan nan nan nan 0 0 0 0 nan nan nan nan 0 8 nan nan nan nan nan nan nan nan nan nan nan nan nan nan nan nan nan nan nan nan nan nan nan nan nan nan nan nan nan nan nan nan nan nan
CIN
nan nan nan nan nan nan nan nan nan nan nan nan nan nan nan nan nan nan nan nan nan nan nan nan nan nan nan nan -6 -6 -0 -0 -0 -0 -0 -0 -0 -0 -0 nan nan nan nan nan nan nan nan nan nan nan nan nan nan nan nan nan nan nan nan nan nan nan nan -0 -0 -0 -0 -0 -0 -0 -0 -0 -0 -0 -0 -0 -0 -0 -0 -0 -0 -0 -0 -0 -0 -0
nan nan nan nan nan nan nan nan nan nan nan nan nan nan nan nan nan nan nan nan nan nan nan nan nan nan nan nan -14 -14 -0 -0 -0 -0 -0 -0 -0 -0 nan nan nan nan nan nan nan nan nan nan nan nan nan nan nan nan nan nan nan nan nan nan nan nan nan nan nan nan nan -0 -0 -0 -0 nan nan nan -0 -0 -0 -0 -0 -0 -0 -0 -0 -0 -0 -0
nan nan nan nan nan nan nan nan nan nan nan nan nan nan nan nan nan nan nan nan nan nan nan nan nan nan nan nan -3 -3 -0 -0 -0 -0 -0 -0 -0 -0 nan nan nan nan nan nan nan nan nan nan nan nan nan nan nan nan nan nan nan nan nan nan nan nan nan nan nan nan nan nan nan nan nan nan nan nan nan nan -0 -0 -0 -0 -0 -0 -0 -0 -0 -0
nan nan nan nan nan nan nan nan nan nan nan nan nan nan nan nan nan nan nan nan nan nan nan nan nan nan nan nan nan nan -0 -0 -0 -0 -0 -0 nan nan nan nan nan nan nan nan nan nan nan nan nan nan nan nan nan nan nan nan nan nan nan nan nan nan nan nan nan nan nan nan nan nan nan nan nan nan nan nan nan nan nan nan nan nan nan nan nan -0
nan nan nan nan nan nan nan nan nan nan nan nan nan nan nan nan nan nan nan nan nan nan nan nan nan nan nan nan nan nan -1 -0 -0 -0 -0 -0 nan nan nan nan nan nan nan nan nan nan nan nan nan nan nan nan nan nan nan nan nan nan nan nan nan nan nan nan nan nan nan nan nan nan nan nan nan nan nan nan nan nan nan nan nan nan nan nan nan -0
nan nan nan nan nan nan -0 nan nan nan nan nan nan nan nan nan nan nan nan nan nan nan nan nan nan nan nan nan nan nan -9 -0 -0 -0 -0 nan nan nan nan nan nan nan nan nan nan nan nan nan nan nan nan nan nan nan nan nan nan nan nan nan nan nan nan nan nan nan nan nan nan nan nan nan nan nan nan nan nan nan nan nan nan nan nan nan nan -0
nan nan nan nan nan nan -0 nan nan nan nan nan nan nan nan nan nan nan nan nan nan nan nan nan nan nan nan nan nan nan nan -7 nan nan nan nan nan nan nan nan nan nan nan nan nan nan nan nan nan nan nan nan nan nan nan nan nan nan nan nan nan nan nan nan nan nan nan nan nan nan nan nan nan nan nan nan nan nan nan nan nan nan nan nan nan -0
nan nan nan -0 -0 -0 -0 -0 -0 -0 nan nan nan nan nan nan nan nan nan nan nan nan nan nan nan nan nan nan nan nan nan nan nan nan nan nan nan nan nan nan nan nan nan nan nan nan nan nan nan nan nan nan nan nan nan nan nan nan nan nan nan nan nan nan nan nan nan nan nan nan nan nan nan nan nan nan nan nan nan nan nan nan nan -0 -0 -0
nan nan nan nan nan nan nan -0 nan nan nan nan nan nan nan nan nan nan nan nan nan nan nan nan nan nan nan nan nan nan nan nan nan nan nan nan nan nan nan nan nan nan nan nan nan nan nan nan nan nan nan nan nan nan nan nan nan nan nan nan nan nan nan nan nan nan nan nan nan nan nan nan nan nan nan nan nan nan nan nan nan nan nan -0 -0 -0
nan nan nan nan nan nan nan nan nan nan nan nan nan nan nan nan nan nan nan nan nan nan nan nan nan nan nan nan nan nan nan nan nan nan nan nan nan nan nan nan nan nan nan nan nan nan nan nan nan nan nan nan nan nan nan nan nan nan nan nan nan nan nan nan nan nan nan nan nan nan nan nan nan nan nan nan nan nan nan nan nan nan nan nan nan -0
nan nan nan nan nan nan nan nan nan nan nan nan nan nan nan nan nan nan nan nan nan nan nan nan nan nan nan nan nan nan nan nan nan nan nan nan nan nan nan nan nan nan nan nan nan nan nan nan nan nan nan nan nan nan nan nan nan nan nan nan nan nan nan nan nan nan nan nan nan nan nan nan nan nan nan nan nan nan nan nan nan nan nan nan nan nan
nan nan nan nan nan nan nan nan nan nan nan nan nan nan nan nan nan nan nan nan nan nan nan nan nan nan nan nan nan nan nan nan nan nan nan nan nan nan nan nan nan nan nan nan nan nan nan nan nan nan nan nan nan nan nan nan nan nan nan nan nan -0 -0 -0 -0 -0 -0 -0 -0 -0 -0 -0 nan nan nan nan nan nan nan nan nan nan nan nan nan nan
nan nan nan nan nan nan nan nan nan nan nan nan nan nan nan nan nan nan nan nan nan nan nan nan nan nan nan nan nan nan nan nan nan nan nan nan nan nan nan nan nan nan nan nan nan nan nan nan nan nan nan nan nan nan nan nan nan nan nan -0 -0 -0 -0 -0 -0 nan -0 -0 -0 -0 -0 -0 -0 -0 -0 nan nan nan nan nan nan nan nan nan nan nan
nan nan nan nan nan nan nan nan nan nan nan nan nan nan nan nan nan nan nan nan nan nan nan nan nan nan nan nan nan nan nan nan nan nan nan nan nan nan nan nan nan nan nan nan nan nan nan nan nan nan nan nan nan nan nan nan nan nan -0 -0 -0 -0 -0 -0 -0 nan nan nan -0 -0 -0 -0 -0 -0 -0 nan nan nan nan nan nan nan nan nan nan nan
nan nan nan nan nan nan nan nan nan nan nan nan nan nan nan nan nan nan nan nan nan nan nan nan nan nan nan nan nan nan nan nan nan nan nan nan nan nan nan nan nan nan nan nan nan nan nan nan nan nan nan nan nan nan nan nan nan nan -0 -0 -0 -0 -0 -0 -0 nan nan nan nan nan nan -0 -0 -0 -0 -0 nan nan nan nan nan nan nan -0 -0 nan
nan nan nan nan nan nan nan nan nan nan nan nan nan nan nan nan nan nan nan nan nan nan nan nan nan nan nan nan nan nan nan nan nan nan nan nan nan nan nan nan nan nan nan nan nan nan nan nan nan nan nan nan nan nan nan nan nan nan -0 -0 -0 -0 -0 -0 -0 -0 nan nan nan nan nan nan -0 -0 -0 -0 nan nan nan nan nan -0 -0 -0 -0 -0
nan nan nan nan nan nan nan nan nan nan nan nan nan nan nan nan nan nan nan nan nan nan nan nan nan nan nan nan nan nan nan nan nan nan nan nan nan nan nan nan nan nan nan nan nan nan nan nan nan nan nan nan nan nan nan nan nan nan -0 nan nan nan -0 -0 -0 -0 nan nan nan nan nan nan nan nan -0 -0 -0 -0 nan nan nan -0 -0 -0 -0 -0
nan nan nan nan nan nan nan nan nan nan nan nan nan nan nan nan nan nan nan nan nan nan nan nan nan nan nan nan nan nan nan nan nan nan nan nan nan nan nan nan nan nan nan nan nan nan nan nan nan nan nan nan nan nan nan nan nan -0 -0 nan nan nan nan nan nan -0 nan -0 -0 -0 -0 nan nan nan nan -0 -0 -0 -0 -0 -0 -0 -0 -0 -0 -0
nan nan nan nan nan nan nan nan nan nan nan nan nan nan nan nan nan nan nan nan nan nan nan nan nan nan nan nan nan nan nan nan nan nan nan nan nan nan nan nan nan nan nan nan nan nan nan nan nan nan nan nan nan nan nan -0 -0 -0 nan nan nan nan nan nan nan -0 -0 -0 -0 -0 -0 -0 -0 -0 nan nan nan nan nan -0 -0 -0 -0 -0 -0 -0
nan nan nan nan nan nan nan nan nan nan nan nan nan nan nan nan nan nan nan nan nan nan nan nan nan nan nan nan nan nan nan nan nan nan nan nan nan nan nan nan nan nan nan nan nan nan nan nan nan nan nan nan nan nan -0 -0 -0 -0 nan nan nan nan nan nan nan -0 -0 -0 -0 -0 -0 -0 -0 -0 -0 -0 nan nan -0 -0 -0 -0 -0 -0 -0 -0
nan nan nan nan nan nan nan nan nan nan nan nan nan nan nan nan nan nan nan nan nan nan nan nan nan nan nan nan nan nan nan nan nan nan nan nan nan nan nan nan nan nan nan nan nan nan nan nan nan nan nan nan nan nan -0 -0 -0 nan nan nan nan nan nan nan nan -0 -0 -0 -0 -0 -0 -0 -0 -0 -0 -0 -0 -0 -0 -0 -0 -0 -0 -0 -0 -0
nan nan nan nan nan nan nan nan nan nan nan nan nan nan nan nan nan nan nan nan nan nan nan nan nan nan nan nan nan nan nan nan nan nan nan nan nan nan nan nan nan nan nan nan nan nan nan nan nan nan nan nan -0 -0 -0 -0 -0 -0 -0 -0 -0 nan nan nan nan -0 -0 -0 -0 -0 -0 -0 -0 -0 -0 -0 -0 -0 -0 -0 -0 -0 -0 -0 -0 -0
nan nan nan nan nan nan nan nan nan nan nan nan nan nan nan nan nan nan nan nan nan nan nan nan nan nan nan nan nan nan nan nan nan nan nan nan nan nan nan nan nan nan nan nan nan nan nan nan nan nan nan nan nan nan -0 -0 -0 -0 -0 -0 -0 -0 nan nan nan -0 -0 -0 -0 -0 -0 -0 -0 -0 -0 -0 -0 -0 -0 -0 -0 -0 -0 -0 -0 -0
nan nan nan nan nan nan nan nan nan nan nan nan nan nan nan nan nan nan nan nan nan nan nan nan nan nan nan nan nan nan nan nan nan nan nan nan nan nan nan nan nan nan nan nan nan nan nan nan nan nan nan nan nan nan -0 -0 -0 -0 -0 -0 -0 -0 nan nan nan nan -0 -0 -0 -0 -0 -0 -0 -0 -0 -0 -0 -0 -0 -0 -0 -0 -0 -0 -0 -0
nan nan nan nan nan nan nan nan nan nan nan nan nan nan nan nan nan nan nan nan nan nan nan nan nan nan nan nan nan nan nan nan nan nan nan nan nan nan nan nan nan nan nan nan nan nan nan nan nan nan nan nan nan nan -2 -0 -0 -0 nan -0 -0 -0 -0 nan nan nan nan -0 -0 -0 -0 -0 -0 -0 -0 -0 -0 -0 -0 -0 -0 -0 -0 -0 -0 -0
nan nan nan nan nan nan nan nan nan nan nan nan nan nan nan nan nan nan nan nan nan nan nan nan nan nan nan nan nan nan nan nan nan nan nan nan nan nan nan nan nan nan nan nan nan nan nan nan nan nan nan nan nan nan nan -0 -0 nan nan nan nan nan -0 -0 -0 -0 -0 -0 -0 -0 -0 -0 -0 -0 -0 -0 -0 -0 -0 -0 -0 -0 -0 -0 -0 -0
nan nan nan nan nan nan nan nan nan nan nan nan nan nan nan nan nan nan nan nan nan nan nan nan nan nan nan nan nan nan nan nan nan nan nan nan nan nan nan nan nan nan nan nan nan nan nan nan nan nan nan nan nan nan nan nan nan nan nan nan nan nan -0 -0 -0 -0 -0 -0 -0 -0 -0 -0 -0 -0 -0 -0 -0 -0 -0 -0 -0 -0 -0 -0 -0 -2
nan nan nan nan nan nan nan nan nan nan nan nan nan nan nan nan nan nan nan nan nan nan nan nan nan nan nan nan nan nan nan nan nan nan nan nan nan nan nan nan nan nan nan nan nan nan nan nan nan nan nan nan nan nan nan nan nan nan nan nan nan nan nan -0 -0 -0 -0 -0 -0 -0 -0 -0 -0 -0 -0 -0 -0 -0 -0 -0 -0 -0 -3 nan nan nan
nan nan nan nan nan nan nan nan nan nan nan nan nan nan nan nan nan nan nan nan nan nan nan nan nan nan nan nan nan nan nan nan nan nan nan nan nan nan nan nan nan nan nan nan nan nan nan nan nan nan nan nan nan nan nan nan nan nan nan nan nan nan nan nan nan nan -0 nan nan nan nan nan -0 -0 -0 -0 -0 -0 -0 -0 -0 -0 -6 nan nan nan
nan nan nan nan nan -0 -0 nan nan nan nan nan nan nan nan nan nan nan nan nan nan nan nan nan nan nan nan nan nan nan nan nan nan nan nan nan nan nan nan nan nan nan nan nan nan nan nan nan nan nan nan nan nan nan nan nan nan nan nan nan nan nan nan nan nan nan nan nan nan nan nan nan nan nan nan nan -0 -0 -0 -0 -0 -2 nan nan nan nan
nan nan nan nan nan nan nan nan nan nan nan nan nan nan nan nan nan nan nan nan nan nan nan nan nan nan nan nan nan nan nan nan nan nan nan nan nan nan nan nan nan nan nan nan nan nan nan nan nan nan nan nan nan nan nan nan nan nan nan nan nan nan nan nan nan nan nan nan nan nan nan nan nan nan nan nan nan nan -0 -0 -0 -13 nan nan nan nan
nan nan nan nan nan nan nan nan nan nan nan nan nan nan nan nan nan nan nan nan nan nan nan nan nan nan nan nan nan nan nan nan nan nan nan nan nan nan nan nan nan nan nan nan nan nan nan nan nan nan nan nan nan nan nan nan nan nan nan nan nan nan nan nan nan nan nan nan nan nan nan nan nan nan nan nan -0 -0 -0 -0 -0 -0 nan nan nan nan
nan nan nan nan nan nan nan nan nan nan nan nan nan nan nan nan nan nan nan nan nan nan nan nan nan nan nan nan nan nan nan nan nan nan nan nan nan nan nan nan nan nan nan nan nan nan nan nan nan nan nan nan nan nan nan nan nan nan nan nan nan nan nan nan nan nan nan nan nan nan nan nan nan nan nan nan -0 -0 -0 -0 -0 -0 -13 nan nan nan
nan nan nan nan nan nan nan nan nan nan nan nan nan nan nan nan nan nan nan nan nan nan nan nan nan nan nan nan nan nan nan nan nan nan nan nan nan nan nan nan nan nan nan nan nan nan nan nan nan nan nan nan nan nan nan nan nan nan nan nan nan nan nan nan nan nan nan nan nan nan nan nan nan nan nan nan nan nan -0 -0 -0 -0 -0 nan nan nan
nan nan nan nan nan nan nan nan nan nan nan nan nan nan nan nan nan nan nan nan nan nan nan nan nan nan nan nan nan nan nan nan nan nan nan nan nan nan nan nan nan nan nan nan nan nan nan nan nan nan nan nan nan nan nan nan nan nan nan nan nan nan nan nan nan nan nan nan nan nan nan nan nan nan nan nan nan nan nan -0 -0 -0 -0 -0 -0 nan
nan nan nan nan nan nan nan nan nan nan nan nan nan nan nan nan nan nan nan nan nan nan nan nan nan nan nan nan nan nan nan nan nan nan nan nan nan nan nan nan nan nan nan nan nan nan nan nan nan nan nan nan nan nan nan nan nan nan nan nan nan nan nan nan nan nan nan nan nan nan nan nan nan nan nan nan nan nan nan nan nan nan nan -0 -0 -8
nan nan nan nan nan nan nan nan nan nan nan nan nan nan nan nan nan nan nan nan nan nan nan nan nan nan nan nan nan nan nan nan nan nan nan nan nan nan nan nan nan nan nan nan nan nan nan nan nan nan nan nan nan nan nan nan nan nan nan nan nan nan nan nan nan nan nan nan nan nan nan nan nan nan nan nan nan nan nan nan nan nan nan nan nan nan
nan nan nan nan nan nan nan nan nan nan nan nan nan nan nan nan nan nan nan nan nan nan nan nan nan nan nan nan nan nan nan nan nan nan nan nan nan nan nan nan nan nan nan nan nan nan nan nan nan nan nan nan nan nan nan nan nan nan nan nan nan nan nan nan nan nan nan nan nan nan nan nan nan nan nan nan nan nan nan nan nan nan nan nan nan nan
nan nan nan nan nan nan nan nan nan nan nan nan nan nan nan nan nan nan nan nan nan nan nan nan nan nan nan nan nan nan nan nan nan nan nan nan nan nan nan nan nan nan nan nan nan nan nan nan nan nan nan nan nan nan nan nan nan nan nan nan nan nan nan nan nan nan nan nan nan nan nan nan nan nan nan nan nan nan nan nan nan nan nan nan nan nan
nan nan nan nan nan nan nan nan nan nan nan nan nan nan nan nan nan nan nan nan nan nan nan nan nan nan nan nan nan nan nan nan nan nan nan nan nan nan nan nan nan nan nan nan nan nan nan nan nan nan nan nan nan nan nan nan nan nan nan nan nan nan nan nan nan nan nan nan nan nan nan nan nan nan nan nan nan nan nan nan nan nan nan nan nan nan
nan nan nan nan nan nan nan nan nan nan nan nan nan nan nan nan nan nan nan nan nan nan nan nan nan nan nan nan nan nan nan nan nan nan nan nan nan nan nan nan nan nan nan nan nan nan nan nan nan nan nan nan nan nan nan nan nan nan nan nan nan nan nan nan nan nan nan nan nan nan nan nan nan nan nan nan nan nan nan nan nan nan nan nan nan nan
nan nan nan nan nan nan nan nan nan nan nan nan nan nan nan nan nan nan nan nan nan nan nan nan nan nan nan nan nan nan nan nan nan nan nan nan nan nan nan nan nan nan nan nan nan nan nan nan nan nan nan nan nan nan nan nan nan nan nan nan nan nan nan nan nan nan nan nan nan nan nan nan nan nan nan nan nan nan nan nan nan nan nan nan nan nan
nan nan nan nan nan nan nan nan nan nan nan nan nan nan nan nan nan nan nan nan nan nan nan nan nan nan nan nan nan nan nan nan nan nan nan nan nan nan nan nan nan nan nan nan nan nan nan nan nan nan nan nan nan nan nan nan nan nan nan nan nan nan nan nan nan nan nan nan nan nan nan nan nan nan nan nan nan nan nan nan nan nan nan nan nan nan
nan nan nan nan nan nan nan nan nan nan nan nan nan nan nan nan nan nan nan nan nan nan nan nan nan nan nan nan nan nan nan nan nan nan nan nan nan nan nan nan nan nan nan nan nan nan nan nan nan nan nan nan nan nan nan nan nan nan nan nan nan nan nan nan nan nan nan nan nan nan nan nan nan nan nan nan nan nan nan nan nan nan nan nan nan nan
nan nan nan nan nan nan nan nan nan nan nan nan nan nan nan nan nan nan nan nan nan nan nan nan nan nan nan nan nan nan nan nan nan nan nan nan -0 -0 nan nan nan nan nan nan nan nan nan nan nan nan nan nan nan nan nan nan nan nan nan nan nan nan nan nan nan nan nan nan nan nan nan nan nan nan nan nan nan nan nan nan nan nan nan nan nan nan
nan nan nan nan nan nan nan nan nan nan nan nan nan nan nan nan nan nan nan nan nan nan nan nan nan nan nan nan nan nan nan nan nan nan nan nan nan nan nan nan nan nan nan nan nan nan nan nan nan nan nan nan nan nan nan nan nan nan nan nan nan nan nan nan nan nan nan nan nan nan nan nan nan nan nan nan nan nan nan nan nan nan nan nan nan nan
nan nan nan nan nan nan nan nan nan nan nan nan nan nan nan nan nan nan nan nan nan nan nan nan nan nan nan nan nan nan nan nan nan nan nan nan nan nan nan -0 -0 nan nan nan nan nan nan nan nan nan nan nan nan nan nan nan nan nan nan nan nan nan nan nan nan nan nan nan nan nan nan nan nan nan nan nan nan nan nan nan nan nan nan nan nan nan
nan nan nan nan nan nan nan nan nan nan nan nan nan nan nan nan nan nan nan nan nan nan nan nan nan nan nan nan nan nan nan nan nan nan nan nan nan nan nan nan nan nan nan nan nan nan nan nan nan nan nan nan nan nan nan nan nan nan nan nan nan nan nan nan nan nan nan nan nan nan nan nan nan nan nan nan nan nan nan nan nan nan nan nan nan nan
nan nan nan nan nan nan nan nan nan nan nan nan nan nan nan nan nan nan nan nan nan nan nan nan nan nan nan nan nan nan nan nan nan nan nan nan nan nan nan nan nan nan nan -0 -0 -0 -0 nan nan nan nan nan nan nan nan nan nan nan nan nan nan nan nan nan nan nan nan nan nan nan nan nan nan nan nan nan nan nan nan nan nan nan nan nan nan nan
nan nan nan nan nan nan nan nan nan nan nan nan nan nan nan nan nan nan nan nan nan nan nan nan nan nan nan nan nan nan nan nan nan nan nan nan nan nan nan nan nan nan nan -0 -0 -0 -0 -0 -0 -0 -0 nan nan nan nan nan nan nan nan nan nan nan nan nan nan nan nan nan nan nan nan nan nan nan nan nan nan nan nan nan nan nan nan nan nan nan
nan nan nan nan nan nan nan nan nan nan nan nan nan nan nan nan nan nan nan nan nan nan nan nan nan nan nan nan nan nan nan nan nan nan nan nan nan nan nan nan nan nan -0 -0 -0 -0 nan nan nan nan -0 -0 nan nan nan nan nan nan nan nan nan nan nan nan nan nan nan nan nan nan nan nan nan nan nan nan nan nan nan nan nan nan nan nan nan nan
Wind_Speed
2 2 2 4 4 4 3 4 4 5 4 3 3 2 2 3 3 4 5 4 4 4 3 3 3 3 3 2 4 7 8 9 9 9 9 9 9 9 9 9 9 9 9 9 9 8 8 8 8 8 7 7 7 7 7 7 7 7 7 7 7 7 7 7 7 7 7 7 7 7 7 7 7 7 6 6 6 6 6 6 6 6 6 6 7 7
2 2 2 3 4 3 2 3 4 4 4 3 3 2 2 3 3 3 3 4 4 4 3 3 3 4 4 3 2 6 8 8 9 9 9 9 8 8 8 8 8 8 8 8 8 8 8 8 7 7 7 7 7 7 7 7 7 7 7 7 7 6 6 6 7 7 7 7 7 7 7 6 6 6 5 5 5 5 5 6 6 6 6 6 6 7
2 2 2 3 3 3 2 3 3 3 4 3 3 2 3 3 3 2 2 3 3 3 3 3 3 4 4 4 0 6 8 8 9 9 9 8 8 8 7 7 7 7 7 7 7 7 7 7 7 7 6 6 6 6 6 6 7 6 6 6 6 6 6 6 6 6 6 6 6 6 5 5 5 5 5 5 5 5 5 5 5 5 6 6 6 6
3 3 3 2 2 2 2 2 3 3 4 3 3 3 3 3 3 2 2 2 2 3 4 4 4 3 3 4 1 3 8 9 9 9 8 8 7 7 7 7 7 7 7 7 7 7 7 7 6 6 6 6 6 6 6 6 6 6 6 6 6 6 5 5 5 5 5 5 5 4 4 4 4 4 4 4 4 4 5 5 5 5 5 5 6 6
3 3 3 2 2 2 2 2 3 3 4 3 3 3 3 3 2 1 1 2 3 3 3 4 4 4 3 3 2 2 7 9 9 8 8 7 7 7 7 7 6 6 6 6 6 6 6 6 6 6 5 5 6 6 6 6 6 6 6 6 5 5 5 4 4 4 4 4 4 4 4 4 4 4 4 4 4 4 4 4 4 5 5 5 5 6
2 2 3 2 2 2 2 2 3 3 3 3 3 3 3 2 1 1 2 2 3 3 3 3 3 3 3 4 3 4 7 8 9 8 8 7 7 7 6 6 6 6 6 6 6 5 6 5 5 5 5 5 5 6 6 6 6 6 6 6 5 5 4 4 4 4 4 4 4 4 4 4 4 4 4 4 4 4 4 4 4 4 5 5 5 5
2 2 2 2 1 1 1 1 2 2 2 2 2 2 2 2 2 2 2 2 2 2 2 2 3 3 4 5 5 6 7 8 8 8 8 8 7 7 6 6 6 6 5 5 5 5 5 5 5 5 5 5 5 5 6 6 6 6 6 5 5 5 4 4 4 4 4 4 4 4 4 4 4 4 4 4 4 4 4 4 4 4 4 4 4 4
3 2 1 1 1 1 1 1 1 1 2 2 2 2 2 2 2 2 2 2 2 2 2 2 3 3 4 5 5 6 6 7 7 7 7 7 7 7 7 7 6 6 5 5 5 5 4 4 4 4 4 5 5 5 5 5 5 5 5 5 5 5 5 5 4 4 4 4 4 4 4 3 3 3 3 3 3 3 4 4 4 4 4 4 4 4
4 3 2 2 2 2 2 1 1 1 1 2 2 2 2 2 1 2 2 2 3 3 2 2 2 3 3 4 4 4 5 5 5 5 5 5 5 6 7 7 7 6 5 5 4 4 4 4 4 4 4 4 5 5 5 5 5 5 5 5 5 5 5 5 5 4 4 4 4 3 3 3 3 3 3 3 3 3 3 3 3 4 4 4 4 3
4 4 3 2 1 1 2 2 1 1 1 1 2 2 2 2 2 2 1 1 2 2 2 2 2 2 2 3 3 4 4 5 6 7 7 6 6 7 7 7 7 6 5 5 5 4 4 4 4 4 4 4 4 4 4 4 4 4 4 5 5 5 5 5 4 4 4 4 3 3 3 3 2 2 2 2 2 2 2 2 3 3 3 3 3 3
3 3 3 2 1 1 1 1 1 1 1 2 2 2 2 2 2 3 3 2 0 1 2 2 2 1 1 2 3 3 3 4 5 6 7 8 8 8 8 8 7 7 7 6 5 5 5 4 4 4 4 4 4 4 4 3 3 3 4 4 4 4 4 4 4 4 4 3 3 3 3 2 2 2 2 2 2 2 2 2 2 3 3 3 3 4
3 3 2 2 2 1 1 1 1 1 1 2 2 1 1 0 1 2 4 4 2 1 1 1 1 1 1 1 2 2 3 2 2 3 4 5 6 6 6 6 6 6 6 6 6 6 6 6 5 5 5 4 4 3 3 3 3 3 3 3 3 3 3 4 4 3 3 3 3 3 2 2 2 2 2 2 2 2 2 2 3 3 3 3 4 4
3 2 2 2 2 2 2 2 2 1 2 2 3 3 3 1 1 1 2 3 2 1 1 1 1 1 1 1 1 1 2 2 1 2 2 3 4 4 3 3 3 4 4 4 5 5 6 7 6 6 5 5 4 3 3 2 2 2 2 2 2 3 3 3 3 3 3 3 2 2 2 2 2 2 2 2 2 3 3 3 3 3 3 3 4 4
3 2 2 2 2 2 2 3 3 4 4 3 3 3 2 2 1 2 2 2 1 0 0 1 1 1 1 1 1 1 1 1 1 1 2 2 2 3 2 2 2 2 3 2 3 4 5 6 5 5 6 5 4 3 3 3 3 2 2 2 2 2 3 3 3 3 2 2 2 2 2 2 2 2 2 2 2 3 3 3 3 3 3 3 4 4
4 4 3 3 3 3 3 4 4 4 4 2 2 2 2 2 2 2 3 2 1 0 1 2 2 2 2 1 1 1 1 1 1 1 2 1 2 2 2 2 2 2 2 2 2 2 4 4 3 3 4 4 4 3 3 2 2 2 2 2 2 2 3 3 2 2 2 2 2 1 1 1 1 1 1 2 2 2 2 2 2 2 3 3 3 4
4 4 4 4 4 3 3 3 3 3 3 2 2 2 3 2 2 2 3 3 2 2 2 2 2 2 2 1 1 1 1 1 2 2 1 1 1 2 2 2 2 2 2 2 1 2 3 3 3 3 3 4 4 4 3 3 2 2 1 2 2 2 2 2 2 2 2 2 1 1 1 1 1 1 1 1 1 1 2 2 2 2 2 2 2 3
3 4 4 4 4 3 2 2 2 3 3 2 2 2 3 3 3 3 3 3 3 2 2 3 2 1 1 2 1 1 1 2 2 2 2 1 1 2 2 2 1 1 2 1 1 2 3 3 3 3 3 5 5 4 4 3 2 1 1 2 2 2 2 2 2 2 2 1 1 1 1 1 1 1 1 1 1 1 1 1 1 1 1 1 1 2
3 3 3 4 4 3 3 2 2 2 2 2 2 2 2 2 2 2 3 3 3 3 3 3 3 2 1 1 1 1 1 1 2 3 2 1 1 2 2 1 1 1 1 1 2 2 2 2 3 3 4 5 5 5 4 3 2 1 2 2 2 2 2 2 2 2 2 1 1 1 1 1 1 0 0 1 1 1 0 0 0 0 1 1 1 1
3 3 3 3 3 3 3 3 3 3 4 4 3 3 2 2 2 2 2 2 3 3 3 3 2 2 2 2 1 1 0 1 2 3 2 0 2 2 2 1 1 1 1 1 1 2 2 2 4 5 6 6 6 5 3 2 1 1 2 2 2 2 2 2 1 1 2 2 2 2 2 1 1 1 1 1 1 1 1 0 0 1 0 1 1 1
3 3 3 3 3 3 3 4 4 4 5 5 5 4 4 3 2 2 2 2 2 2 2 3 3 2 2 2 2 1 1 1 2 3 2 0 2 2 2 2 2 1 1 1 2 2 2 3 4 5 6 6 6 4 3 1 1 2 2 2 2 2 1 1 1 1 1 1 2 2 2 2 2 2 1 1 1 1 1 1 1 1 0 0 1 1
4 4 4 4 4 4 4 4 5 5 5 6 5 5 4 3 3 2 2 2 2 2 2 2 2 2 2 2 1 1 1 1 3 3 2 0 1 2 2 2 1 1 1 2 2 2 2 3 3 4 5 6 5 4 2 0 1 2 2 2 2 1 1 0 0 1 1 1 1 1 1 1 1 1 1 1 1 1 1 1 1 1 0 0 1 1
4 5 4 4 4 4 4 5 5 6 6 7 7 5 5 4 4 4 3 3 3 3 3 2 2 1 1 1 0 1 1 1 2 3 2 1 1 2 1 1 1 1 0 2 2 2 2 2 3 4 5 6 5 3 1 1 2 2 2 2 2 1 1 0 0 1 1 1 1 1 1 1 0 0 0 0 1 1 2 2 2 2 1 1 1 1
4 4 4 4 3 3 3 4 5 5 6 6 5 5 4 5 5 5 5 4 4 3 3 2 1 1 1 1 1 1 1 1 1 2 3 1 1 2 1 1 1 1 1 2 2 3 3 3 3 3 5 7 5 2 1 2 2 2 2 2 1 1 1 0 1 1 1 1 1 1 1 1 0 0 0 0 1 1 2 2 2 2 2 2 2 2
3 3 4 4 3 2 3 4 4 4 3 3 3 3 3 3 3 3 3 3 4 4 3 3 2 2 2 2 1 1 1 1 1 2 3 1 1 2 1 1 1 1 1 2 2 2 3 3 3 3 4 7 5 2 2 3 3 2 2 2 1 1 1 1 0 1 1 1 1 1 1 1 1 1 1 1 1 1 2 2 2 3 3 3 3 3
3 3 4 4 4 4 4 5 6 5 5 4 4 4 5 6 6 5 5 4 4 4 3 3 3 2 2 2 2 2 1 1 1 2 3 1 1 1 1 1 1 0 1 2 2 1 2 2 3 3 3 6 5 4 3 4 3 3 3 2 2 1 1 1 1 1 1 1 1 1 1 1 1 1 1 1 1 1 2 2 2 3 3 3 3 3
5 5 6 6 7 8 9 10 10 10 9 7 6 5 5 6 6 5 4 3 3 3 4 3 2 1 1 1 1 1 1 0 1 1 2 2 1 1 1 1 0 0 1 2 2 1 1 2 2 3 3 4 5 5 5 5 4 4 4 3 3 2 2 1 1 1 1 1 1 1 1 1 1 1 1 1 1 1 1 2 2 2 2 2 2 3
10 11 11 11 11 12 12 13 13 13 12 11 9 8 7 6 5 5 3 2 3 3 4 3 1 0 1 1 1 2 1 0 0 1 2 2 1 0 1 0 0 0 1 2 2 1 1 1 2 3 3 3 5 6 6 6 6 5 5 4 4 3 3 2 2 2 1 1 1 1 1 1 1 1 1 1 1 1 1 2 2 1 1 1 2 3
13 13 13 12 13 13 14 14 14 14 14 13 13 11 8 6 5 4 3 3 3 3 4 3 2 1 1 1 2 2 2 1 1 2 2 2 1 1 1 0 0 0 0 1 1 2 1 1 1 2 3 3 4 4 6 7 7 7 6 5 5 4 3 3 3 2 2 2 2 2 2 2 2 1 1 1 1 2 2 2 1 1 1 3 3 3
12 12 12 12 12 13 13 13 13 14 14 13 12 9 6 4 4 4 4 4 3 4 3 2 2 2 2 1 1 2 2 2 2 3 3 2 1 1 0 0 0 0 0 1 2 2 2 1 1 1 2 3 3 3 4 6 6 6 7 6 6 5 4 4 3 3 3 2 2 2 2 2 2 2 2 2 2 2 2 2 1 0 3 3 3 2
9 10 10 10 9 9 9 8 9 11 13 12 10 7 5 4 4 4 4 4 4 4 3 3 2 2 2 1 1 2 2 2 2 3 4 3 1 1 0 0 0 0 0 2 2 2 2 2 2 1 1 2 3 3 3 4 4 4 5 6 5 5 5 4 4 4 3 3 3 3 3 3 3 3 3 3 3 2 2 2 1 1 3 2 2 1
6 7 7 7 6 6 6 5 5 6 8 9 8 6 5 4 4 4 4 4 4 4 4 3 3 2 2 2 1 0 2 2 2 3 3 3 2 1 1 1 0 0 0 2 2 1 1 2 2 1 1 2 2 2 2 2 3 3 3 3 4 4 5 5 5 4 4 4 3 3 3 3 3 3 3 3 3 3 2 3 1 2 3 2 2 1
5 5 4 4 4 4 5 4 4 4 5 6 5 5 5 4 4 4 4 4 4 4 4 4 3 2 2 2 2 2 2 2 2 4 4 3 2 1 2 2 1 0 1 1 2 2 2 1 2 2 2 2 2 2 2 2 2 2 2 2 2 3 5 5 5 5 4 4 4 4 4 4 3 3 3 3 3 3 3 3 2 1 3 2 2 2
4 4 3 4 4 4 4 4 4 4 4 4 4 4 4 4 4 4 3 3 3 4 4 4 3 2 2 2 2 2 2 2 3 5 5 3 2 1 1 2 1 1 0 1 1 2 2 1 1 2 2 2 2 2 2 2 1 1 1 1 1 2 4 4 4 4 4 4 4 4 5 5 4 4 4 3 3 3 3 3 2 1 2 2 2 2
4 4 4 4 4 4 4 4 4 4 4 3 3 3 3 3 3 3 3 2 3 3 4 4 4 3 3 2 1 2 3 3 4 5 5 3 2 2 1 2 2 1 1 1 1 1 1 1 0 1 2 2 2 2 1 1 1 1 0 0 0 1 2 3 3 3 3 3 3 3 4 4 5 5 5 4 4 3 3 3 3 3 2 2 2 2
4 4 4 4 3 3 3 3 3 3 3 3 2 2 2 2 2 2 2 2 2 2 2 3 3 4 4 3 2 2 3 3 4 6 5 4 3 2 2 2 2 2 2 2 1 1 1 1 0 1 1 2 2 2 1 1 1 1 1 1 1 1 1 1 1 2 2 2 2 2 3 3 3 4 5 5 5 4 4 4 4 4 4 2 2 2
3 3 3 3 3 3 2 2 2 2 2 1 1 1 2 2 1 1 1 1 1 1 1 1 2 2 3 4 3 3 3 3 4 5 5 4 3 3 2 2 2 3 3 2 2 2 1 1 1 1 1 1 2 2 2 2 2 1 1 1 0 1 0 0 0 0 1 2 2 2 2 2 3 3 4 5 6 6 5 5 5 5 4 4 3 2
3 2 2 2 2 2 1 1 1 0 0 1 1 1 1 2 2 2 1 1 2 1 1 2 1 1 1 2 2 2 2 2 3 4 5 4 3 3 3 2 2 3 3 3 3 2 2 1 1 1 1 1 1 2 2 2 3 3 2 2 1 1 0 0 0 1 1 1 1 1 2 2 2 3 3 5 6 6 6 6 5 5 5 5 5 4
2 2 1 1 1 1 1 0 0 0 0 1 1 1 1 2 2 2 2 2 2 2 2 2 2 2 3 2 2 1 1 1 1 2 4 3 3 3 3 2 2 2 2 3 3 3 3 2 1 0 1 1 2 2 1 2 2 3 3 2 2 1 1 0 0 1 1 0 1 1 1 1 1 2 3 4 4 4 4 4 5 5 5 5 5 5
2 1 1 1 1 1 1 1 1 1 1 1 1 2 2 2 2 3 2 2 2 2 2 2 2 2 2 2 2 2 2 2 2 2 3 3 3 2 3 3 2 2 1 2 3 3 4 3 2 1 1 2 2 2 1 1 2 2 3 3 2 2 1 1 1 1 1 0 0 1 1 1 1 1 2 2 2 2 2 3 3 3 4 4 4 5
2 1 1 2 2 1 1 1 1 1 1 1 2 2 2 2 2 2 2 2 2 2 2 2 1 2 2 2 2 3 3 2 2 2 2 2 2 2 3 3 3 3 2 2 2 3 3 3 2 2 2 2 1 1 2 2 2 2 1 2 2 2 2 1 1 1 1 1 0 1 1 1 1 1 1 1 1 1 1 1 1 2 1 1 1 2
2 1 1 1 1 1 1 1 1 1 1 2 2 2 2 2 1 1 2 2 2 2 2 2 2 2 2 2 2 2 2 2 1 1 2 1 1 1 2 3 3 3 3 2 2 2 3 3 3 2 2 2 1 1 1 2 2 2 1 1 2 2 3 2 0 1 1 0 1 1 1 1 1 1 1 1 2 2 2 2 2 2 1 1 1 1
3 2 1 1 1 1 1 1 1 1 2 2 2 2 1 1 1 2 2 1 1 1 2 2 2 2 2 2 2 2 2 2 1 0 1 1 1 1 1 2 3 3 3 3 2 2 2 3 3 3 3 3 2 1 2 2 2 2 2 2 1 2 4 2 1 1 0 1 1 1 1 1 1 1 2 2 2 3 3 3 3 3 3 2 2 2
2 2 2 1 1 1 1 1 1 2 2 2 2 1 1 1 1 2 2 2 1 1 2 2 2 2 1 1 2 3 2 2 2 1 0 1 1 1 1 2 3 3 4 3 2 1 2 2 3 3 4 4 3 2 2 2 2 2 2 2 1 1 2 2 2 1 0 1 1 2 2 1 2 2 2 3 3 2 2 3 4 5 4 2 2 3
2 2 2 1 1 1 1 1 1 1 1 2 1 1 0 0 0 1 2 2 2 1 1 1 2 2 2 1 1 2 3 3 3 2 1 2 3 3 1 1 2 3 4 3 3 2 1 2 2 3 3 3 3 3 3 2 2 2 2 3 3 2 2 2 2 1 1 1 1 2 2 2 1 1 2 2 2 2 2 2 2 3 3 2 3 3
2 2 2 1 1 1 1 1 1 1 1 2 2 1 0 1 0 1 2 2 2 1 1 1 2 2 1 1 1 2 3 3 3 2 2 1 2 3 3 2 2 2 3 3 3 3 3 2 2 2 2 2 3 3 4 3 3 3 3 3 4 4 4 3 2 2 2 2 2 2 2 1 1 0 1 2 2 2 2 2 2 3 3 2 3 3
2 2 2 1 1 1 2 1 1 1 2 2 1 1 0 0 1 1 2 2 2 2 1 1 2 2 1 1 1 1 1 2 2 2 2 2 1 1 2 2 2 2 2 2 3 3 3 3 3 2 2 2 3 4 4 4 4 3 3 3 3 3 3 3 3 3 3 3 2 2 1 1 1 1 1 2 2 3 3 3 3 3 3 3 3 3
3 3 2 2 2 2 1 1 1 2 2 2 1 1 0 0 1 1 2 2 2 2 1 2 2 2 2 2 1 1 0 1 1 2 2 2 1 0 1 2 2 3 3 3 3 3 3 3 3 3 3 3 3 4 4 4 4 4 3 3 2 2 3 3 3 3 3 3 3 2 2 2 1 1 2 2 2 3 3 3 3 3 3 3 3 3
4 4 3 3 3 2 2 1 1 2 2 1 1 0 0 1 1 2 2 1 1 2 2 2 2 2 2 1 1 1 1 1 1 1 1 1 1 1 1 1 2 2 3 3 4 4 4 4 4 4 4 4 4 4 4 4 4 4 3 3 3 3 4 3 3 3 3 3 3 3 3 2 2 2 2 2 2 2 3 3 3 3 3 3 4 4
4 4 4 3 3 3 2 2 2 2 2 2 1 1 0 0 1 2 2 1 2 2 3 3 3 2 2 1 1 1 1 1 1 1 1 1 1 1 1 2 2 2 2 3 3 4 4 5 5 6 6 5 5 4 4 4 3 3 3 3 3 3 4 3 3 3 3 3 3 3 3 3 3 2 2 2 2 3 3 3 3 3 4 3 3 3
3 4 4 4 3 3 3 3 3 3 3 2 2 1 1 1 1 2 2 1 1 2 2 3 3 3 2 2 2 2 2 1 1 1 2 1 1 1 1 2 2 2 2 2 2 2 2 3 4 6 9 9 8 7 5 4 3 3 3 3 3 3 3 3 3 2 3 3 3 3 3 3 2 2 2 2 2 3 3 3 3 3 3 3 2 3
3 3 3 3 3 3 3 3 3 3 3 3 3 2 2 2 1 1 1 1 1 1 2 2 3 3 3 3 3 3 3 3 2 2 2 1 1 1 1 2 2 2 2 1 1 1 1 1 2 4 7 11 12 11 7 5 3 3 3 3 3 3 3 3 2 2 2 2 2 3 3 3 2 2 2 2 2 3 3 2 3 3 3 2 2 2
Wind_Direction
102 118 126 136 137 136 143 141 135 128 125 119 108 94 78 72 65 57 55 54 52 50 48 35 27 22 15 75 131 137 135 128 120 114 108 103 98 92 87 82 77 72 67 63 60 58 55 52 49 47 44 42 41 39 37 34 32 29 26 25 24 24 25 28 31 35 39 42 46 50 54 54 52 49 45 41 37 35 34 33 31 28 24 19 12 4
103 111 122 137 137 134 134 135 132 129 129 122 112 96 82 77 69 57 49 48 47 45 42 31 27 22 10 354 132 145 141 131 124 117 111 105 99 93 86 79 73 67 63 59 56 54 52 49 47 45 44 43 43 43 41 39 35 32 28 25 22 21 21 24 27 30 34 37 40 43 45 45 44 41 37 35 33 33 32 30 26 22 18 12 7 1
132 131 139 138 136 132 128 124 114 107 111 110 103 92 88 86 79 66 51 44 42 40 38 32 28 22 10 344 159 153 144 133 125 119 114 108 100 92 84 76 68 63 58 55 53 51 49 46 44 42 41 42 44 45 44 42 38 34 30 26 23 21 21 22 25 29 32 35 37 37 37 37 35 32 29 28 28 27 27 24 20 16 11 7 2 357
147 148 153 140 124 114 111 114 105 95 92 92 87 81 82 85 83 72 56 49 44 40 36 31 29 23 10 347 334 152 142 132 125 120 115 108 100 91 82 73 65 59 54 52 51 49 47 44 42 40 40 42 44 45 45 42 39 36 32 28 25 23 22 24 25 28 31 34 35 35 34 32 29 25 23 22 21 20 20 17 13 9 5 1 357 353
157 155 154 141 120 99 86 101 105 104 97 90 82 75 71 77 80 71 45 47 48 47 39 32 28 23 13 355 6 117 130 126 122 117 112 105 98 89 79 70 61 55 51 50 49 48 46 43 40 39 39 42 44 46 46 42 40 37 34 30 28 26 25 26 27 29 30 33 34 34 33 30 27 24 23 21 18 16 13 10 6 2 360 357 354 351
157 151 143 130 116 103 95 105 114 113 103 92 80 72 67 66 66 58 42 42 45 48 46 38 30 25 21 9 33 82 108 112 110 105 102 97 91 84 75 65 57 50 47 46 46 46 44 41 38 38 39 43 46 47 46 43 41 38 36 34 32 30 29 30 30 31 32 33 34 35 35 33 30 28 26 23 19 15 10 6 2 358 356 354 352 350
144 130 116 100 94 96 101 112 122 125 116 106 91 77 66 60 57 54 48 41 39 42 48 43 38 32 28 20 31 53 81 88 87 83 82 80 77 72 66 59 51 45 42 43 43 43 42 38 37 37 40 45 48 49 48 45 43 40 39 37 36 34 34 35 35 35 35 35 36 37 37 36 34 33 31 28 23 18 12 6 1 357 354 353 351 349
143 132 110 107 105 105 102 98 95 97 112 121 117 104 79 60 52 48 46 37 31 31 39 41 39 36 31 22 27 40 62 72 71 67 66 64 62 59 57 52 46 40 38 39 40 40 38 35 34 36 41 47 51 52 50 47 44 41 39 38 37 37 37 38 39 39 38 38 38 38 38 38 37 36 35 33 30 24 17 9 2 356 353 352 351 348
148 147 142 137 132 129 126 109 64 35 62 116 123 124 119 100 72 49 44 32 25 23 34 46 45 38 22 14 16 28 52 71 73 68 62 59 55 53 52 47 42 37 35 37 38 37 34 32 32 35 41 49 54 55 53 47 42 38 36 35 34 35 35 37 38 39 40 40 40 40 40 38 37 36 36 37 36 32 26 16 6 359 354 352 350 347
147 148 145 131 116 116 124 118 98 25 6 84 98 109 123 125 122 115 99 48 19 14 30 47 52 39 10 3 5 17 37 59 66 65 57 50 51 54 50 45 40 36 36 37 38 37 33 31 31 34 39 47 54 57 53 46 38 33 29 29 29 30 30 32 34 36 38 39 41 42 42 41 40 40 41 43 43 42 37 27 16 6 1 357 352 348
146 145 136 118 84 62 83 100 105 105 98 84 76 70 77 105 134 148 156 155 121 18 24 38 44 39 8 353 354 3 19 39 45 44 40 37 39 42 40 38 36 35 36 37 38 38 35 33 32 34 36 41 47 51 51 39 29 22 18 20 22 24 25 26 27 28 30 34 36 39 41 42 45 49 54 58 59 57 52 42 32 21 12 5 357 350
148 145 132 127 117 97 81 81 83 93 111 109 107 106 103 43 128 152 163 163 159 133 50 29 31 36 38 349 340 348 8 28 29 21 19 23 23 23 23 25 27 27 28 31 33 35 35 34 33 34 33 33 34 36 40 25 11 3 1 7 14 20 22 22 19 18 19 23 27 30 33 37 43 54 68 71 71 67 62 54 45 36 25 13 2 354
140 136 130 131 133 132 123 120 119 127 147 159 167 173 179 180 143 123 135 140 136 124 89 48 23 8 357 357 348 349 6 29 30 22 21 20 14 8 3 6 8 10 12 20 25 27 29 28 26 25 26 22 17 13 11 355 344 340 343 354 9 18 22 19 14 9 6 9 12 16 19 23 32 47 63 70 71 68 63 57 50 42 33 18 6 359
139 136 137 145 152 154 152 151 157 165 177 176 170 160 149 139 121 107 99 97 90 52 43 64 37 354 332 355 4 4 7 48 48 37 31 26 15 4 350 352 352 355 4 16 18 15 15 17 15 12 11 5 359 350 333 325 322 324 330 349 8 20 24 17 9 2 356 353 355 358 2 9 19 34 52 66 70 68 63 56 50 43 36 22 10 2
154 155 161 169 172 172 171 171 173 175 172 154 130 107 94 99 108 113 110 117 122 77 48 55 33 357 329 337 356 5 359 68 71 60 38 15 6 3 358 352 351 357 14 27 12 356 1 6 2 352 347 341 330 314 305 296 303 316 329 355 15 22 23 15 7 359 350 346 343 342 344 353 3 16 34 56 68 71 65 57 49 43 38 26 12 3
163 166 173 177 178 178 177 176 173 164 142 123 116 124 130 141 139 129 122 132 131 114 91 85 57 359 321 321 357 31 19 70 87 91 76 2 349 357 9 9 9 8 9 17 354 335 340 348 347 338 328 323 320 318 317 306 309 326 347 14 26 29 25 17 9 359 351 345 339 336 339 342 345 351 2 24 51 67 69 58 47 39 35 27 13 3
167 173 176 176 177 178 170 154 141 131 127 123 122 128 136 143 137 127 122 126 122 115 116 122 126 139 285 304 327 11 36 82 95 96 87 21 338 344 8 26 36 23 351 350 335 326 332 337 334 326 316 316 318 320 319 318 324 344 24 37 39 35 30 22 12 1 353 353 352 357 359 352 344 337 335 340 355 32 65 58 43 27 19 14 3 354
173 177 175 174 174 171 158 142 126 117 125 127 122 108 90 98 104 111 118 125 128 130 133 134 144 158 180 250 275 301 30 97 102 97 81 13 318 326 358 30 59 56 349 332 321 317 323 321 317 313 311 316 318 317 314 315 331 21 52 54 51 46 39 30 15 2 355 5 24 41 44 44 34 12 341 328 328 331 344 48 48 351 341 330 325 319
180 179 173 171 165 158 154 158 156 152 151 151 143 129 108 99 98 103 111 123 132 137 140 146 157 170 174 206 236 262 315 112 105 100 97 290 300 318 350 8 31 39 14 323 309 307 312 307 307 310 314 315 314 310 307 314 4 63 70 67 61 55 49 40 20 2 1 19 36 48 49 47 46 44 43 12 347 330 310 268 229 225 257 274 281 280
181 185 180 163 150 149 164 178 176 169 164 158 147 138 133 135 126 114 110 115 120 125 134 145 165 186 196 214 242 277 305 89 93 95 109 235 290 312 346 8 28 38 5 305 292 295 310 308 310 312 315 313 309 305 300 325 75 86 86 82 77 72 66 51 11 351 3 26 40 47 48 44 40 36 31 24 15 356 321 294 277 255 242 286 297 294
181 196 199 170 155 157 178 184 180 170 160 146 137 133 137 137 136 134 133 125 120 119 125 144 167 188 192 196 222 284 329 81 101 104 102 21 309 311 346 16 40 49 5 298 293 298 313 311 309 309 313 311 307 300 287 135 116 113 109 107 106 105 102 93 347 347 7 27 38 47 52 48 44 37 30 20 7 347 320 310 306 307 326 339 337 329
180 195 196 179 169 167 171 166 163 161 156 148 147 149 152 153 158 163 166 152 145 143 142 153 165 177 169 167 200 330 332 60 116 120 107 56 311 300 336 21 53 64 11 291 297 306 317 313 309 312 318 316 308 292 245 156 138 133 124 125 125 125 121 114 11 359 11 22 29 35 41 44 41 35 14 355 333 317 308 309 312 316 323 322 326 331
173 178 174 176 173 160 143 139 146 152 153 150 153 157 160 161 164 167 168 159 149 140 130 123 111 92 77 70 35 10 348 359 97 110 107 130 259 277 323 6 49 62 266 284 299 314 321 315 310 314 323 324 315 288 190 144 132 124 114 114 114 114 110 83 38 16 16 19 21 24 23 17 358 318 289 271 275 281 288 296 302 305 306 302 299 296
153 152 151 157 153 135 119 128 132 133 125 115 109 104 100 106 112 118 121 122 119 117 116 106 88 60 28 22 23 24 14 15 58 90 106 151 226 262 321 10 38 42 275 284 300 317 322 316 312 317 331 336 338 353 116 112 105 91 82 79 81 85 99 103 89 56 35 27 25 23 22 12 357 334 306 288 276 270 270 279 285 290 294 295 296 296
124 126 131 137 140 138 132 134 135 133 122 112 104 99 94 91 91 90 88 89 95 100 100 86 72 47 6 4 360 357 2 22 55 87 113 148 227 273 319 19 54 70 270 291 308 329 331 322 319 325 338 347 356 16 69 84 82 71 62 57 53 52 62 83 100 100 82 56 43 32 27 19 7 348 327 307 288 275 267 269 271 276 281 288 298 306
119 122 127 133 137 138 137 136 137 135 131 126 122 118 115 108 102 95 85 85 91 96 91 83 73 34 340 341 322 303 298 25 68 97 122 130 156 287 314 20 62 34 284 301 313 333 345 333 328 330 338 347 355 8 38 56 59 55 52 47 43 41 43 55 72 84 84 74 60 47 29 23 8 351 331 305 290 280 273 269 268 270 277 296 319 335
116 121 125 130 133 134 134 134 134 133 131 130 130 131 127 119 110 104 102 114 113 106 102 105 110 336 331 318 288 274 270 235 167 142 131 118 120 189 291 359 48 35 307 308 312 320 339 335 327 326 329 332 340 353 21 32 38 41 42 40 38 37 38 44 51 57 58 55 47 33 17 8 356 342 325 303 289 280 275 272 272 278 312 12 15 11
110 115 120 124 127 129 130 131 131 131 131 132 133 134 130 120 118 127 156 160 132 109 107 121 138 162 214 251 266 275 281 248 209 179 143 112 117 186 249 7 39 49 10 327 326 331 348 333 317 314 315 318 329 346 7 19 26 29 30 32 33 34 35 36 37 37 34 30 22 11 1 353 345 336 326 310 294 282 274 270 273 299 53 61 55 41
93 98 102 104 110 117 123 124 127 130 130 130 130 127 119 115 126 145 169 156 129 111 114 129 142 153 174 232 284 301 292 251 207 173 143 117 125 202 220 55 41 46 101 46 14 358 348 323 306 304 307 318 329 342 353 7 14 17 18 23 28 31 33 31 28 22 14 9 2 356 348 343 338 334 326 315 304 291 279 270 268 68 80 74 66 48
67 70 69 68 74 85 96 104 116 124 126 121 115 105 90 98 117 136 148 139 127 121 130 137 140 142 143 92 2 329 289 260 210 168 145 137 148 190 157 92 31 340 109 88 61 16 326 308 300 298 305 323 330 335 338 352 358 1 4 14 21 27 32 29 23 15 5 359 353 346 340 336 333 328 323 316 307 297 282 269 245 119 101 97 88 70
59 60 54 46 46 50 55 55 71 92 105 98 90 82 78 89 105 121 132 133 131 130 137 143 147 147 143 120 119 214 263 257 211 170 148 142 151 165 144 129 114 306 272 112 112 117 284 294 298 308 333 331 330 328 331 343 351 355 354 5 13 22 28 26 21 13 7 1 356 350 343 339 332 325 319 312 304 295 283 269 235 144 119 126 133 142
69 69 63 54 50 50 52 51 52 56 66 66 66 68 78 92 107 122 133 137 134 131 132 140 144 148 151 148 164 192 236 243 204 177 151 135 133 142 132 126 122 26 300 101 128 144 166 235 279 308 334 331 327 324 328 338 351 358 358 7 7 11 18 18 16 13 11 7 4 3 360 353 345 335 326 314 304 296 287 277 254 168 136 143 154 168
75 70 61 58 57 56 55 53 54 56 59 56 56 59 67 85 106 122 133 136 134 130 129 133 137 141 144 150 178 211 243 245 208 183 159 131 118 123 120 113 111 102 9 37 91 126 144 176 244 299 318 314 313 315 319 326 342 358 8 15 359 349 358 6 7 6 4 3 5 8 9 5 1 355 345 334 321 308 296 287 275 233 161 154 163 178
76 69 60 59 58 57 53 49 50 53 56 53 52 53 55 72 93 112 123 126 129 131 134 138 143 146 146 151 199 255 267 250 208 184 163 132 118 126 127 125 129 129 110 64 49 62 91 110 263 301 311 309 308 309 308 308 315 324 350 46 339 322 333 351 354 352 350 354 357 360 2 2 4 2 356 348 338 326 312 300 290 280 258 194 176 175
73 64 54 53 55 57 54 47 46 47 49 45 43 44 49 61 75 91 103 104 110 119 129 139 147 152 153 155 174 229 257 240 203 182 163 141 129 128 127 149 152 144 126 123 109 92 84 44 6 335 338 323 317 311 304 294 294 292 263 209 210 250 298 341 349 346 343 348 348 348 349 352 356 357 353 349 345 338 328 316 306 298 291 263 226 194
75 64 49 46 51 59 59 49 44 43 45 40 33 31 39 52 60 64 62 64 73 85 96 112 131 145 151 155 166 190 226 223 199 182 166 148 134 130 131 163 164 147 128 129 127 123 115 82 25 11 22 336 312 304 307 311 317 323 318 295 248 232 248 284 55 21 353 349 343 338 336 342 344 344 342 348 348 345 339 330 321 313 306 295 282 258
83 73 47 40 48 61 68 51 33 22 39 42 37 34 39 48 53 56 51 38 38 47 64 69 71 82 108 136 155 176 203 206 196 182 164 143 128 124 129 155 163 154 134 138 138 132 116 97 47 12 16 289 268 279 300 324 337 341 332 319 308 296 283 278 113 109 81 346 320 314 318 330 335 335 334 346 350 350 346 342 338 333 329 322 311 298
97 94 64 43 48 70 102 146 215 218 156 98 82 69 58 57 57 55 55 45 38 37 43 48 49 49 50 67 87 119 142 131 152 154 139 130 122 119 121 130 150 160 144 144 141 136 124 116 100 327 289 264 257 260 283 325 334 327 311 306 302 295 279 268 163 132 132 201 276 289 305 330 335 333 334 346 354 357 350 346 346 348 350 342 329 316
122 136 160 173 175 174 176 191 196 176 114 106 101 95 84 74 69 67 68 66 59 49 41 40 42 44 39 43 55 69 73 77 97 115 116 120 123 123 122 128 140 153 136 127 129 130 130 138 154 183 220 249 266 276 296 305 299 295 300 313 320 318 291 246 193 160 147 156 286 304 313 329 336 336 333 349 1 3 348 333 335 347 3 358 343 327
146 165 197 192 182 176 184 182 150 110 102 104 102 98 92 84 75 68 69 74 72 68 60 53 53 50 44 41 41 42 45 47 72 100 110 120 130 136 132 136 143 148 138 115 116 126 134 145 162 177 180 193 226 259 283 276 260 256 294 327 325 313 296 261 203 154 121 124 157 284 297 304 310 316 316 325 331 324 296 286 300 321 358 27 8 336
157 177 206 193 168 148 148 105 91 98 101 98 93 90 87 87 84 78 73 67 59 53 54 60 55 42 24 25 27 29 30 13 23 78 111 124 136 137 135 138 140 140 136 131 129 137 143 151 163 176 180 177 187 215 246 245 235 225 208 237 269 274 274 264 234 106 98 131 173 205 246 286 297 298 293 283 261 237 223 226 245 260 268 159 148 154
170 177 177 157 133 115 103 103 107 106 101 90 88 93 104 114 118 117 108 86 59 38 34 53 58 48 21 360 358 5 19 1 351 21 123 131 134 131 129 139 140 138 134 132 140 161 171 167 171 178 183 176 178 207 248 243 232 217 202 209 248 280 290 282 295 55 114 221 219 208 200 242 271 278 279 279 269 254 236 224 232 242 244 202 174 172
172 156 129 122 122 130 134 113 104 99 100 91 91 92 91 99 118 121 114 107 96 76 54 62 75 83 71 353 331 330 336 333 325 313 185 175 177 174 151 145 144 142 136 132 142 178 209 197 192 189 185 174 177 199 236 240 230 213 204 195 198 276 305 293 296 305 268 231 219 208 200 215 234 250 262 267 268 265 257 250 252 254 252 220 196 197
129 107 98 104 104 100 97 91 90 97 110 109 107 97 41 350 52 98 102 102 98 86 60 66 76 79 74 31 322 315 317 324 329 328 299 214 195 184 180 161 152 149 146 146 149 158 173 214 219 210 190 180 189 211 237 241 236 222 211 196 192 197 221 256 275 286 286 251 226 211 203 208 223 250 273 272 272 270 269 262 263 263 256 224 204 204
101 95 96 103 107 103 103 100 100 100 101 103 103 96 52 351 26 84 104 104 97 87 67 90 90 84 65 353 310 310 313 324 331 337 336 279 199 185 177 174 173 171 169 169 166 161 157 186 209 213 194 191 204 222 237 243 244 237 221 206 205 211 222 235 247 255 262 266 255 234 200 180 177 268 293 286 280 273 267 265 267 268 261 236 216 212
113 117 120 118 118 121 128 125 114 102 96 91 90 86 58 25 48 78 98 103 104 102 85 95 106 119 151 208 263 306 321 325 331 340 350 357 357 185 181 182 187 194 199 199 190 179 172 175 177 178 171 194 217 228 231 233 237 240 236 216 212 219 235 242 243 243 246 256 257 243 172 143 143 189 257 274 279 277 269 257 254 257 260 250 235 225
133 138 142 137 131 127 124 114 106 104 105 103 99 94 79 89 86 84 80 90 102 110 101 88 107 132 163 180 184 181 185 271 295 310 327 350 2 350 191 193 201 208 212 219 222 219 212 194 179 170 169 199 223 234 232 225 225 228 229 218 212 217 233 238 235 228 223 234 234 216 158 147 164 210 237 258 273 278 276 264 252 247 247 247 242 236
150 150 149 142 134 127 123 121 120 121 127 127 118 95 87 153 135 116 91 85 100 114 116 111 124 147 175 186 187 181 172 192 229 263 280 298 311 285 215 191 193 202 213 220 225 229 229 223 214 206 203 211 225 236 235 223 218 217 217 212 212 221 236 238 228 212 204 216 213 195 169 177 196 219 236 258 272 275 275 272 265 254 244 240 237 236
149 150 151 145 141 141 147 152 149 147 151 150 142 118 37 40 112 112 106 101 107 116 126 139 152 169 192 213 216 205 193 198 220 246 260 257 253 230 200 180 175 180 194 208 218 225 231 230 228 225 223 222 229 237 242 229 218 210 208 211 216 225 239 241 228 207 197 204 201 192 182 192 200 205 208 243 261 266 268 271 268 262 251 241 234 232
147 150 152 152 154 159 163 163 164 166 170 164 154 136 98 46 43 57 80 88 102 118 139 153 164 176 197 208 207 200 198 204 219 242 251 243 216 169 166 168 168 171 177 189 201 211 223 233 233 230 226 224 225 230 240 236 226 214 214 220 222 226 238 245 237 217 200 201 194 188 186 194 192 186 184 219 246 259 263 262 261 261 260 254 244 237
150 153 155 159 163 166 167 167 170 173 174 165 152 135 117 99 85 80 81 87 106 128 149 158 169 182 199 206 204 198 197 196 205 222 236 225 196 161 159 163 167 171 175 182 190 196 210 242 250 242 231 223 220 220 227 228 226 224 230 230 224 221 231 240 241 233 220 211 197 186 184 191 192 190 187 206 235 256 260 253 251 256 262 266 261 253